BRU009 UMMS-LYTV

Flight info

Callsign BRU009
Flight time 1h 59m
Altitude 38000
Route OSMUS2F OSMUS Z369 BRT L856 TOSPO/N0457F380 Z367 KEFIR DCT KEKED DCT PARAK/N0459F390 DCT BGD/N0457F380 DCT POD
Aircraft B738/M-SDE2E3FGHIRWY/LB1

Departure

Time 2026-04-30 12:48
Airport Minsk National Airport (UMMS)

Arrival

Time 2026-04-30 14:47
Airport Tivat Airport (LYTV)
Time Latitude Longitude Altitude Speed Heading
2026-04-30 12:03 53.88911 28.03580 636 ft 0 kts 314°
2026-04-30 12:34 53.88901 28.03597 636 ft 4 kts 308°
2026-04-30 12:34 53.88888 28.03636 639 ft 4 kts 282°
2026-04-30 12:34 53.88889 28.03675 636 ft 4 kts 230°
2026-04-30 12:35 53.88892 28.03682 636 ft 1 kts 223°
2026-04-30 12:39 53.88876 28.03656 639 ft 6 kts 224°
2026-04-30 12:39 53.88838 28.03589 640 ft 9 kts 228°
2026-04-30 12:40 53.88796 28.03507 638 ft 9 kts 229°
2026-04-30 12:40 53.88784 28.03484 639 ft 0 kts 229°
2026-04-30 12:40 53.88780 28.03475 643 ft 3 kts 228°
2026-04-30 12:40 53.88752 28.03424 635 ft 9 kts 229°
2026-04-30 12:41 53.88701 28.03324 635 ft 10 kts 230°
2026-04-30 12:41 53.88647 28.03305 645 ft 10 kts 150°
2026-04-30 12:41 53.88578 28.03402 642 ft 15 kts 139°
2026-04-30 12:41 53.88520 28.03505 635 ft 11 kts 103°
2026-04-30 12:42 53.88561 28.03622 635 ft 15 kts 46°
2026-04-30 12:42 53.88646 28.03792 641 ft 22 kts 48°
2026-04-30 12:42 53.88762 28.04015 639 ft 28 kts 49°
2026-04-30 12:42 53.88898 28.04278 643 ft 30 kts 48°
2026-04-30 12:43 53.89029 28.04538 641 ft 28 kts 49°
2026-04-30 12:43 53.89154 28.04777 635 ft 22 kts 49°
2026-04-30 12:43 53.89180 28.04903 639 ft 11 kts 115°
2026-04-30 12:43 53.89106 28.05023 635 ft 19 kts 138°
2026-04-30 12:44 53.88986 28.05204 635 ft 27 kts 138°
2026-04-30 12:44 53.88837 28.05430 637 ft 29 kts 140°
2026-04-30 12:44 53.88686 28.05650 640 ft 28 kts 138°
2026-04-30 12:44 53.88546 28.05858 636 ft 26 kts 137°
2026-04-30 12:45 53.88415 28.06052 635 ft 24 kts 139°
2026-04-30 12:45 53.88291 28.06237 643 ft 25 kts 137°
2026-04-30 12:45 53.88158 28.06433 635 ft 25 kts 136°
2026-04-30 12:45 53.88047 28.06603 638 ft 16 kts 138°
2026-04-30 12:46 53.87966 28.06728 646 ft 15 kts 136°
2026-04-30 12:46 53.87951 28.06851 644 ft 9 kts 52°
2026-04-30 12:46 53.87992 28.06930 643 ft 9 kts 48°
2026-04-30 12:46 53.88037 28.06990 636 ft 8 kts
2026-04-30 12:47 53.88085 28.06939 638 ft 10 kts 320°
2026-04-30 12:47 53.88265 28.06676 634 ft 69 kts 319°
2026-04-30 12:47 53.88800 28.05882 635 ft 133 kts 318°
2026-04-30 12:47 53.89592 28.04690 905 ft 163 kts 320°
2026-04-30 12:48 53.90463 28.03352 1627 ft 172 kts 319°
2026-04-30 12:48 53.91314 28.02080 2752 ft 153 kts 321°
2026-04-30 12:48 53.92135 28.00883 3528 ft 160 kts 321°
2026-04-30 12:48 53.92992 27.99633 4193 ft 170 kts 320°
2026-04-30 12:49 53.93956 27.98219 4518 ft 194 kts 320°
2026-04-30 12:49 53.95012 27.96615 4928 ft 209 kts 316°
2026-04-30 12:49 53.96059 27.94771 5199 ft 234 kts 314°
2026-04-30 12:49 53.97243 27.92666 5562 ft 254 kts 315°
2026-04-30 12:50 53.98464 27.90479 6398 ft 256 kts 314°
2026-04-30 12:50 53.99720 27.88256 7123 ft 261 kts 315°
2026-04-30 12:50 54.00970 27.86040 8000 ft 260 kts 316°
2026-04-30 12:50 54.02222 27.83821 8838 ft 260 kts 317°
2026-04-30 12:51 54.03502 27.81594 9561 ft 266 kts 318°
2026-04-30 12:51 54.04808 27.79332 10318 ft 269 kts 318°
2026-04-30 12:51 54.06126 27.77026 11045 ft 272 kts 318°
2026-04-30 12:51 54.07397 27.74601 11750 ft 280 kts 307°
2026-04-30 12:52 54.08046 27.71447 12417 ft 297 kts 281°
2026-04-30 12:52 54.07842 27.67767 12633 ft 328 kts 259°
2026-04-30 12:52 54.07162 27.63905 12827 ft 351 kts 256°
2026-04-30 12:52 54.06394 27.59903 13193 ft 365 kts 255°
2026-04-30 12:53 54.05582 27.55763 13847 ft 372 kts 255°
2026-04-30 12:53 54.04761 27.51560 14517 ft 376 kts 256°
2026-04-30 12:53 54.03939 27.47314 15169 ft 380 kts 256°
2026-04-30 12:53 54.03110 27.42989 15810 ft 385 kts 257°
2026-04-30 12:54 53.98887 27.21089 18872 ft 409 kts 257°
2026-04-30 12:54 53.98015 27.16452 19335 ft 415 kts 258°
2026-04-30 12:54 53.97136 27.11771 19942 ft 417 kts 258°
2026-04-30 12:54 53.96242 27.07071 20549 ft 419 kts 257°
2026-04-30 12:55 53.95333 27.02333 21113 ft 423 kts 257°
2026-04-30 12:55 53.94412 26.97564 21629 ft 427 kts 257°
2026-04-30 12:55 53.93479 26.92750 22167 ft 431 kts 257°
2026-04-30 12:55 53.92546 26.87946 22690 ft 435 kts 257°
2026-04-30 12:56 53.91594 26.83033 23221 ft 438 kts 257°
2026-04-30 12:56 53.90638 26.78101 23735 ft 442 kts 257°
2026-04-30 12:56 53.89558 26.73185 24145 ft 451 kts 247°
2026-04-30 12:56 53.88404 26.70214 24379 ft 461 kts 233°
2026-04-30 12:57 53.85395 26.65036 25021 ft 465 kts 227°
2026-04-30 12:57 53.83063 26.61205 25412 ft 468 kts 226°
2026-04-30 12:57 53.80712 26.57355 25770 ft 472 kts 227°
2026-04-30 12:57 53.79145 26.54782 26022 ft 474 kts 227°
2026-04-30 12:58 53.76776 26.50875 26415 ft 476 kts 227°
2026-04-30 12:58 53.74400 26.46938 26809 ft 479 kts 227°
2026-04-30 12:58 53.72021 26.42986 27190 ft 481 kts 227°
2026-04-30 12:58 53.69630 26.39009 27552 ft 484 kts 227°
2026-04-30 12:59 53.67225 26.35010 27911 ft 486 kts 227°
2026-04-30 12:59 53.64809 26.30997 28263 ft 489 kts 227°
2026-04-30 12:59 53.62372 26.26958 28589 ft 491 kts 227°
2026-04-30 12:59 53.59929 26.22917 28931 ft 494 kts 227°
2026-04-30 13:00 53.57502 26.18910 29254 ft 496 kts 227°
2026-04-30 13:00 53.55028 26.14834 29563 ft 499 kts 227°
2026-04-30 13:00 53.52541 26.10744 29870 ft 501 kts 227°
2026-04-30 13:00 53.50039 26.06635 30176 ft 503 kts 226°
2026-04-30 13:01 53.47528 26.02520 30455 ft 505 kts 226°
2026-04-30 13:01 53.45001 25.98384 30716 ft 507 kts 226°
2026-04-30 13:01 53.42479 25.94266 31059 ft 506 kts 226°
2026-04-30 13:01 53.39954 25.90152 31451 ft 504 kts 226°
2026-04-30 13:02 53.37441 25.86063 31779 ft 504 kts 226°
2026-04-30 13:02 53.34927 25.81979 32065 ft 504 kts 226°
2026-04-30 13:02 53.32436 25.77939 32359 ft 504 kts 226°
2026-04-30 13:02 53.29910 25.73848 32676 ft 504 kts 226°
2026-04-30 13:03 53.27396 25.69784 33028 ft 503 kts 226°
2026-04-30 13:03 53.24877 25.65720 33331 ft 503 kts 226°
2026-04-30 13:03 53.22355 25.61658 33618 ft 503 kts 226°
2026-04-30 13:03 53.19828 25.57595 33923 ft 503 kts 226°
2026-04-30 13:04 53.17308 25.53549 34242 ft 502 kts 226°
2026-04-30 13:04 53.14788 25.49511 34491 ft 502 kts 226°
2026-04-30 13:04 53.12298 25.45528 34756 ft 502 kts 226°
2026-04-30 13:04 53.09782 25.41510 35029 ft 500 kts 226°
2026-04-30 13:05 53.07261 25.37491 35298 ft 499 kts 226°
2026-04-30 13:05 53.04753 25.33498 35547 ft 499 kts 226°
2026-04-30 13:05 53.02245 25.29514 35799 ft 498 kts 226°
2026-04-30 13:06 52.97262 25.21617 36283 ft 496 kts 226°
2026-04-30 13:06 52.94770 25.17676 36504 ft 496 kts 225°
2026-04-30 13:06 52.92266 25.13724 36746 ft 495 kts 225°
2026-04-30 13:06 52.89768 25.09788 36980 ft 495 kts 225°
2026-04-30 13:07 52.87273 25.05864 37201 ft 494 kts 225°
2026-04-30 13:07 52.84775 25.01940 37424 ft 493 kts 225°
2026-04-30 13:07 52.82290 24.98045 37712 ft 491 kts 225°
2026-04-30 13:07 52.79815 24.94172 37989 ft 489 kts 225°
2026-04-30 13:08 52.77344 24.90311 38148 ft 489 kts 225°
2026-04-30 13:08 52.74885 24.86475 38259 ft 491 kts 225°
2026-04-30 13:08 52.72363 24.82546 38350 ft 493 kts 225°
2026-04-30 13:09 52.67367 24.74782 38343 ft 493 kts 225°
2026-04-30 13:09 52.62412 24.67111 38345 ft 490 kts 225°
2026-04-30 13:10 52.57449 24.59451 38350 ft 488 kts 225°
2026-04-30 13:10 52.52502 24.51841 38350 ft 486 kts 225°
2026-04-30 13:11 52.47553 24.44250 38354 ft 486 kts 225°
2026-04-30 13:11 52.42602 24.36682 38349 ft 486 kts 225°
2026-04-30 13:12 52.37646 24.29130 38358 ft 487 kts 225°
2026-04-30 13:12 52.32699 24.21617 38352 ft 489 kts 225°
2026-04-30 13:13 52.25203 24.10278 38345 ft 491 kts 225°
2026-04-30 13:14 52.17670 23.98939 38342 ft 491 kts 225°
2026-04-30 13:14 52.10269 23.87410 38339 ft 487 kts 233°
2026-04-30 13:15 52.04675 23.73832 38350 ft 484 kts 238°
2026-04-30 13:15 52.02551 23.69572 38343 ft 487 kts 226°
2026-04-30 13:16 51.99967 23.65990 38368 ft 488 kts 216°
2026-04-30 13:16 51.97055 23.63121 38351 ft 489 kts 205°
2026-04-30 13:16 51.93939 23.60923 38377 ft 489 kts 203°
2026-04-30 13:17 51.84522 23.54618 38360 ft 490 kts 203°
2026-04-30 13:18 51.75071 23.48185 38358 ft 491 kts 203°
2026-04-30 13:18 51.65626 23.41709 38365 ft 492 kts 203°
2026-04-30 13:19 51.59362 23.37429 38359 ft 492 kts 203°
2026-04-30 13:19 51.53049 23.33133 38366 ft 492 kts 203°
2026-04-30 13:20 51.46735 23.28849 38367 ft 493 kts 203°
2026-04-30 13:20 51.40413 23.24574 38368 ft 493 kts 203°
2026-04-30 13:21 51.34082 23.20306 38369 ft 493 kts 203°
2026-04-30 13:22 51.24600 23.13937 38363 ft 492 kts 203°
2026-04-30 13:22 51.15124 23.07600 38372 ft 492 kts 203°
2026-04-30 13:23 51.05682 23.01314 38377 ft 492 kts 203°
2026-04-30 13:24 50.93077 22.92965 38370 ft 491 kts 203°
2026-04-30 13:25 50.80463 22.84660 38373 ft 490 kts 203°
2026-04-30 13:26 50.64711 22.74357 38371 ft 489 kts 203°
2026-04-30 13:28 50.48985 22.64145 38372 ft 488 kts 203°
2026-04-30 13:28 50.39550 22.58053 38384 ft 488 kts 203°
2026-04-30 13:29 50.27005 22.49995 38374 ft 488 kts 202°
2026-04-30 13:31 50.11270 22.39952 38383 ft 488 kts 202°
2026-04-30 13:32 49.95547 22.29988 38380 ft 488 kts 202°
2026-04-30 13:33 49.82992 22.22083 38368 ft 488 kts 202°
2026-04-30 13:34 49.73551 22.16167 38370 ft 487 kts 202°
2026-04-30 13:35 49.61010 22.08349 38371 ft 486 kts 202°
2026-04-30 13:36 49.48451 22.00563 38373 ft 486 kts 202°
2026-04-30 13:36 49.39044 21.94760 38365 ft 485 kts 202°
2026-04-30 13:37 49.29807 21.88467 38375 ft 484 kts 208°
2026-04-30 13:38 49.20849 21.81322 38359 ft 483 kts 208°
2026-04-30 13:39 49.08856 21.72005 38374 ft 483 kts 208°
2026-04-30 13:40 49.00850 21.65871 38350 ft 484 kts 208°
2026-04-30 13:40 48.93856 21.60525 38366 ft 484 kts 208°
2026-04-30 13:41 48.87834 21.55934 38362 ft 484 kts 208°
2026-04-30 13:41 48.81797 21.51343 38351 ft 485 kts 208°
2026-04-30 13:42 48.76745 21.47511 38353 ft 485 kts 208°
2026-04-30 13:42 48.67733 21.40699 38347 ft 484 kts 208°
2026-04-30 13:43 48.61704 21.36157 38345 ft 483 kts 208°
2026-04-30 13:43 48.55680 21.31630 38343 ft 483 kts 208°
2026-04-30 13:44 48.49557 21.27410 38350 ft 482 kts 201°
2026-04-30 13:44 48.43227 21.24063 38347 ft 482 kts 199°
2026-04-30 13:45 48.33737 21.19221 38347 ft 481 kts 200°
2026-04-30 13:46 48.27414 21.15920 38348 ft 481 kts 200°
2026-04-30 13:46 48.21086 21.12591 38329 ft 481 kts 200°
2026-04-30 13:47 48.14764 21.09269 38340 ft 480 kts 200°
2026-04-30 13:47 48.08486 21.05981 38341 ft 480 kts 200°
2026-04-30 13:48 48.02159 21.02679 38335 ft 480 kts 200°
2026-04-30 13:48 47.95858 20.99399 38340 ft 480 kts 200°
2026-04-30 13:49 47.89542 20.96119 38331 ft 479 kts 200°
2026-04-30 13:49 47.83241 20.92857 38331 ft 479 kts 200°
2026-04-30 13:50 47.76941 20.89602 38330 ft 478 kts 200°
2026-04-30 13:50 47.67544 20.84764 38332 ft 478 kts 200°
2026-04-30 13:51 47.61262 20.81540 38331 ft 477 kts 200°
2026-04-30 13:51 47.54974 20.78322 38323 ft 477 kts 200°
2026-04-30 13:52 47.48741 20.75139 38329 ft 476 kts 200°
2026-04-30 13:52 47.42479 20.71949 38325 ft 476 kts 200°
2026-04-30 13:53 47.36221 20.68770 38329 ft 475 kts 200°
2026-04-30 13:53 47.29975 20.65604 38319 ft 474 kts 200°
2026-04-30 13:54 47.23737 20.62451 38327 ft 474 kts 200°
2026-04-30 13:54 47.17496 20.59303 38324 ft 473 kts 201°
2026-04-30 13:55 47.11304 20.56189 38334 ft 473 kts 200°
2026-04-30 13:55 47.05078 20.53065 38321 ft 473 kts 201°
2026-04-30 13:56 46.98852 20.49949 38317 ft 472 kts 200°
2026-04-30 13:56 46.92624 20.46839 38316 ft 472 kts 200°
2026-04-30 13:57 46.86383 20.43731 38315 ft 472 kts 200°
2026-04-30 13:57 46.80161 20.40639 38309 ft 473 kts 201°
2026-04-30 13:58 46.70852 20.36028 38313 ft 473 kts 201°
2026-04-30 13:59 46.64620 20.32951 38308 ft 473 kts 201°
2026-04-30 13:59 46.58375 20.29875 38297 ft 473 kts 201°
2026-04-30 14:00 46.52142 20.26812 38309 ft 472 kts 201°
2026-04-30 14:00 46.42825 20.22248 38306 ft 472 kts 201°
2026-04-30 14:01 46.36587 20.19202 38305 ft 472 kts 201°
2026-04-30 14:01 46.30350 20.16165 38305 ft 472 kts 201°
2026-04-30 14:02 46.24119 20.13138 38299 ft 472 kts 201°
2026-04-30 14:02 46.17818 20.10380 38291 ft 474 kts 192°
2026-04-30 14:03 46.11197 20.10056 38465 ft 481 kts 175°
2026-04-30 14:03 46.07929 20.10618 38845 ft 477 kts 174°
2026-04-30 14:03 46.04656 20.11209 39178 ft 472 kts 174°
2026-04-30 14:04 46.01396 20.11796 39293 ft 472 kts 175°
2026-04-30 14:04 45.98118 20.12370 39289 ft 475 kts 175°
2026-04-30 14:04 45.91513 20.13482 39308 ft 480 kts 175°
2026-04-30 14:05 45.84844 20.14573 39304 ft 484 kts 175°
2026-04-30 14:05 45.78126 20.15666 39288 ft 487 kts 175°
2026-04-30 14:06 45.68138 20.17291 39278 ft 477 kts 175°
2026-04-30 14:07 45.58260 20.18894 39291 ft 474 kts 176°
2026-04-30 14:08 45.48420 20.20482 39288 ft 474 kts 176°
2026-04-30 14:08 45.38591 20.22064 39290 ft 476 kts 176°
2026-04-30 14:09 45.32196 20.23091 39274 ft 477 kts 176°
2026-04-30 14:10 45.22277 20.24679 39286 ft 479 kts 176°
2026-04-30 14:10 45.15689 20.25731 39280 ft 480 kts 176°
2026-04-30 14:10 45.12360 20.26262 39164 ft 482 kts 176°
2026-04-30 14:11 45.09021 20.26793 38919 ft 481 kts 176°
2026-04-30 14:11 45.05707 20.27322 38760 ft 475 kts 176°
2026-04-30 14:11 45.02435 20.27844 38648 ft 472 kts 176°
2026-04-30 14:12 44.95896 20.28881 38471 ft 473 kts 176°
2026-04-30 14:12 44.92611 20.29402 38349 ft 475 kts 176°
2026-04-30 14:12 44.89362 20.29916 38297 ft 474 kts 176°
2026-04-30 14:13 44.82797 20.30577 38287 ft 469 kts 187°
2026-04-30 14:13 44.76447 20.28825 38301 ft 464 kts 201°
2026-04-30 14:14 44.70299 20.25960 38281 ft 465 kts 202°
2026-04-30 14:14 44.64184 20.23114 38286 ft 467 kts 202°
2026-04-30 14:15 44.57991 20.20296 38284 ft 467 kts 201°
2026-04-30 14:15 44.51794 20.17514 38268 ft 467 kts 201°
2026-04-30 14:16 44.45611 20.14751 38271 ft 466 kts 201°
2026-04-30 14:16 44.39434 20.11995 38287 ft 465 kts 201°
2026-04-30 14:17 44.33265 20.09247 38282 ft 464 kts 202°
2026-04-30 14:17 44.27154 20.06530 38265 ft 463 kts 202°
2026-04-30 14:18 44.21014 20.03807 38275 ft 461 kts 202°
2026-04-30 14:18 44.11871 19.99762 38266 ft 458 kts 202°
2026-04-30 14:19 44.02771 19.95749 38273 ft 455 kts 202°
2026-04-30 14:20 43.96739 19.93096 38278 ft 454 kts 202°
2026-04-30 14:20 43.93723 19.91771 38143 ft 455 kts 202°
2026-04-30 14:20 43.87688 19.89122 37029 ft 456 kts 202°
2026-04-30 14:21 43.84667 19.87801 36429 ft 455 kts 202°
2026-04-30 14:21 43.81645 19.86480 35792 ft 455 kts 203°
2026-04-30 14:21 43.75596 19.83838 34471 ft 458 kts 203°
2026-04-30 14:22 43.72552 19.82509 33688 ft 459 kts 203°
2026-04-30 14:22 43.66471 19.79865 32546 ft 452 kts 203°
2026-04-30 14:22 43.63481 19.78569 32009 ft 448 kts 203°
2026-04-30 14:23 43.57603 19.76024 31071 ft 438 kts 203°
2026-04-30 14:23 43.51840 19.73530 30092 ft 430 kts 203°
2026-04-30 14:24 43.47126 19.71492 29230 ft 422 kts 203°
2026-04-30 14:24 43.43448 19.69908 28591 ft 414 kts 204°
2026-04-30 14:25 43.38911 19.67953 27807 ft 406 kts 204°
2026-04-30 14:25 43.33527 19.65632 26536 ft 407 kts 204°
2026-04-30 14:26 43.28124 19.63306 25406 ft 405 kts 203°
2026-04-30 14:26 43.25449 19.62157 24928 ft 400 kts 204°
2026-04-30 14:26 43.20187 19.59908 23991 ft 393 kts 204°
2026-04-30 14:27 43.17583 19.58796 23484 ft 390 kts 203°
2026-04-30 14:27 43.14994 19.57691 22954 ft 387 kts 203°
2026-04-30 14:27 43.12438 19.56601 22484 ft 383 kts 203°
2026-04-30 14:28 43.07422 19.54463 21581 ft 376 kts 202°
2026-04-30 14:28 43.04937 19.53403 21133 ft 373 kts 202°
2026-04-30 14:28 43.02463 19.52351 20681 ft 370 kts 202°
2026-04-30 14:28 43.00009 19.51308 20248 ft 368 kts 202°
2026-04-30 14:29 42.95145 19.49242 19387 ft 364 kts 201°
2026-04-30 14:29 42.90331 19.47200 18535 ft 360 kts 201°
2026-04-30 14:30 42.83172 19.44174 17152 ft 360 kts 200°
2026-04-30 14:31 42.78375 19.42146 16291 ft 365 kts 200°
2026-04-30 14:31 42.73468 19.40081 15434 ft 368 kts 200°
2026-04-30 14:31 42.71028 19.39056 14966 ft 365 kts 201°
2026-04-30 14:32 42.66223 19.37036 14104 ft 363 kts 200°
2026-04-30 14:32 42.63810 19.36022 13606 ft 362 kts 198°
2026-04-30 14:32 42.61405 19.35013 13147 ft 361 kts 200°
2026-04-30 14:33 42.59016 19.34010 12712 ft 358 kts 199°
2026-04-30 14:33 42.54298 19.32041 11866 ft 352 kts 200°
2026-04-30 14:33 42.51957 19.31064 11436 ft 350 kts 200°
2026-04-30 14:34 42.49635 19.30093 11038 ft 348 kts 199°
2026-04-30 14:34 42.47319 19.29128 10684 ft 344 kts 200°
2026-04-30 14:34 42.45056 19.28185 10473 ft 337 kts 199°
2026-04-30 14:34 42.42848 19.27266 10317 ft 328 kts 200°
2026-04-30 14:35 42.38653 19.25355 10029 ft 307 kts 214°
2026-04-30 14:35 42.37055 19.23596 10059 ft 288 kts 227°
2026-04-30 14:35 42.35638 19.21741 9952 ft 281 kts 229°
2026-04-30 14:36 42.34236 19.19878 9679 ft 285 kts 228°
2026-04-30 14:36 42.32807 19.17985 9377 ft 287 kts 228°
2026-04-30 14:36 42.31372 19.16097 9028 ft 287 kts 227°
2026-04-30 14:36 42.29945 19.14230 8542 ft 286 kts 227°
2026-04-30 14:37 42.28511 19.12359 7985 ft 288 kts 226°
2026-04-30 14:37 42.27063 19.10477 7645 ft 289 kts 226°
2026-04-30 14:37 42.25629 19.08615 7296 ft 290 kts 226°
2026-04-30 14:37 42.24175 19.06729 6946 ft 291 kts 226°
2026-04-30 14:38 42.22710 19.04829 6607 ft 293 kts 226°
2026-04-30 14:38 42.21237 19.02920 6233 ft 295 kts 226°
2026-04-30 14:38 42.19749 19.00995 5841 ft 296 kts 226°
2026-04-30 14:38 42.18258 18.99072 5427 ft 297 kts 225°
2026-04-30 14:39 42.16764 18.97150 5083 ft 294 kts 225°
2026-04-30 14:39 42.15296 18.95261 4662 ft 289 kts 225°
2026-04-30 14:39 42.13853 18.93400 4236 ft 284 kts 225°
2026-04-30 14:40 42.12631 18.88982 3979 ft 242 kts 293°
2026-04-30 14:40 42.13273 18.87651 3991 ft 220 kts 325°
2026-04-30 14:40 42.14540 18.86951 4029 ft 202 kts 351°
2026-04-30 14:40 42.15892 18.86342 4000 ft 193 kts 341°
2026-04-30 14:41 42.17091 18.85715 3987 ft 176 kts 343°
2026-04-30 14:41 42.18205 18.85155 3999 ft 168 kts 344°
2026-04-30 14:41 42.19291 18.84610 4022 ft 166 kts 344°
2026-04-30 14:41 42.20342 18.84078 3991 ft 155 kts 344°
2026-04-30 14:42 42.21317 18.83580 4002 ft 144 kts 344°
2026-04-30 14:42 42.22241 18.83108 4017 ft 144 kts 344°
2026-04-30 14:42 42.23158 18.82637 4000 ft 139 kts 345°
2026-04-30 14:42 42.24066 18.82171 4001 ft 139 kts 344°
2026-04-30 14:43 42.24973 18.81704 3998 ft 140 kts 343°
2026-04-30 14:43 42.25893 18.81213 3831 ft 143 kts 344°
2026-04-30 14:43 42.26834 18.80746 3538 ft 146 kts 345°
2026-04-30 14:43 42.27777 18.80263 3260 ft 145 kts 343°
2026-04-30 14:44 42.28715 18.79730 2913 ft 146 kts 340°
2026-04-30 14:44 42.29566 18.79271 2643 ft 139 kts 345°
2026-04-30 14:44 42.29756 18.79171 2603 ft 138 kts 342°
2026-04-30 14:44 42.30663 18.78720 2364 ft 139 kts 346°
2026-04-30 14:45 42.31572 18.78344 2146 ft 139 kts 348°
2026-04-30 14:45 42.32511 18.77978 1866 ft 142 kts 342°
2026-04-30 14:45 42.33424 18.77535 1661 ft 137 kts 345°
2026-04-30 14:45 42.34348 18.77218 1413 ft 139 kts 346°
2026-04-30 14:46 42.35271 18.76840 1207 ft 141 kts 344°
2026-04-30 14:46 42.36081 18.76464 1093 ft 137 kts 341°
2026-04-30 14:46 42.36959 18.75957 781 ft 134 kts 335°
2026-04-30 14:46 42.37760 18.75324 568 ft 134 kts 329°
2026-04-30 14:47 42.38534 18.74571 369 ft 138 kts 327°
2026-04-30 14:47 42.39267 18.73731 135 ft 136 kts 322°
2026-04-30 14:47 42.39958 18.72923 2 ft 122 kts 320°
2026-04-30 14:47 42.40360 18.72452 5 ft 49 kts 319°
2026-04-30 14:48 42.40602 18.72165 -1 ft 40 kts 319°
2026-04-30 14:48 42.40762 18.71978 2 ft 29 kts 318°
2026-04-30 14:48 42.40888 18.71830 4 ft 12 kts 319°
2026-04-30 14:48 42.40937 18.71792 5 ft 8 kts 356°
2026-04-30 14:49 42.40976 18.71827 6 ft 5 kts 49°
2026-04-30 14:49 42.40984 18.71840 6 ft 4 kts 49°
2026-04-30 14:49 42.41007 18.71860 7 ft 4 kts 10°
2026-04-30 14:49 42.41032 18.71838 6 ft 5 kts 316°
2026-04-30 14:50 42.41133 18.71719 5 ft 8 kts 318°
2026-04-30 14:50 42.41168 18.71676 6 ft 5 kts 319°
2026-04-30 14:51 42.41210 18.71670 7 ft 4 kts 30°
2026-04-30 14:51 42.41217 18.71698 8 ft 3 kts 106°
2026-04-30 14:51 42.41198 18.71708 8 ft 0 kts 182°
2026-04-30 14:52 42.41197 18.71708 7 ft 0 kts 183°